KAC107 RPLL-VTBS

Flight info

Callsign KAC107
Flight time N/A
Altitude 38000
Route SIRCA2R SIRCA L628 DODUS/N0473F340 L628 ARESI/K0885F380 L628 PCA G474 ANINA/N0475F380 G474 VEMKO M633 DULEM TUMGA1C
Aircraft B77W/H-SDE1E2E3FGHIJ2J3J4J5M1RWXY/LB1D1

Departure

Time 2026-05-07 20:48
Airport Ninoy Aquino International Airport (RPLL)

Arrival

Time N/A
Airport Suvarnabhumi Airport (VTBS)
Time Latitude Longitude Altitude Speed Heading
2026-05-07 20:14 14.50427 121.00516 74 ft 0 kts 307°
2026-05-07 20:38 14.50427 121.00517 74 ft 1 kts 307°
2026-05-07 20:38 14.50411 121.00537 74 ft 4 kts 310°
2026-05-07 20:38 14.50394 121.00558 73 ft 4 kts 312°
2026-05-07 20:39 14.50377 121.00577 63 ft 2 kts 310°
2026-05-07 20:39 14.50364 121.00597 66 ft 4 kts 279°
2026-05-07 20:39 14.50366 121.00624 63 ft 4 kts 248°
2026-05-07 20:39 14.50376 121.00645 69 ft 1 kts 240°
2026-05-07 20:40 14.50379 121.00649 66 ft 0 kts 240°
2026-05-07 20:43 14.50378 121.00648 73 ft 0 kts 240°
2026-05-07 20:43 14.50339 121.00577 65 ft 18 kts 240°
2026-05-07 20:44 14.50277 121.00468 63 ft 18 kts 240°
2026-05-07 20:44 14.50220 121.00365 67 ft 0 kts 240°
2026-05-07 20:44 14.50209 121.00353 64 ft 8 kts 221°
2026-05-07 20:44 14.50148 121.00336 68 ft 14 kts 197°
2026-05-07 20:45 14.50056 121.00218 63 ft 29 kts 240°
2026-05-07 20:45 14.49950 121.00025 63 ft 30 kts 240°
2026-05-07 20:45 14.49897 120.99972 74 ft 0 kts 189°
2026-05-07 20:46 14.49891 120.99972 72 ft 5 kts 185°
2026-05-07 20:46 14.49831 120.99999 64 ft 11 kts 136°
2026-05-07 20:47 14.49824 121.00073 67 ft 11 kts 66°
2026-05-07 20:47 14.49839 121.00101 66 ft 0 kts 59°
2026-05-07 20:47 14.49912 121.00231 67 ft 65 kts 59°
2026-05-07 20:48 14.50355 121.01021 84 ft 186 kts 59°
2026-05-07 20:48 14.51101 121.02378 796 ft 237 kts 61°
2026-05-07 20:48 14.51887 121.03825 2842 ft 238 kts 59°